GFA320 OBBI-OKKK

Flight info

Callsign GFA320
Flight time 0h 46m
Altitude 26000
Route BHR A453 DEBTI DEBT3D
Aircraft A320/M-V/N

Departure

Time 2026-05-04 17:30
Airport Bahrain International Airport (OBBI)

Arrival

Time 2026-05-04 18:16
Airport Kuwait International Airport (OKKK)
Time Latitude Longitude Altitude Speed Heading
2026-05-04 17:08 26.26718 50.63209 17 ft 0 kts 212°
2026-05-04 17:18 26.26729 50.63216 17 ft 3 kts 212°
2026-05-04 17:19 26.26770 50.63245 17 ft 1 kts 212°
2026-05-04 17:19 26.26782 50.63253 20 ft 0 kts 212°
2026-05-04 17:20 26.26799 50.63250 18 ft 0 kts 111°
2026-05-04 17:22 26.26794 50.63266 17 ft 12 kts 111°
2026-05-04 17:22 26.26805 50.63371 16 ft 31 kts 43°
2026-05-04 17:23 26.26581 50.63878 17 ft 26 kts 122°
2026-05-04 17:23 26.26485 50.64052 16 ft 27 kts 121°
2026-05-04 17:23 26.26269 50.64415 14 ft 29 kts 124°
2026-05-04 17:24 26.26160 50.64603 16 ft 29 kts 122°
2026-05-04 17:24 26.26040 50.64953 17 ft 0 kts 51°
2026-05-04 17:27 26.26121 50.64993 19 ft 13 kts 343°
2026-05-04 17:28 26.26171 50.64937 17 ft 0 kts 302°
2026-05-04 17:29 26.26172 50.64935 17 ft 5 kts 302°
2026-05-04 17:29 26.27361 50.62865 207 ft 171 kts 303°
2026-05-04 17:30 26.30477 50.59957 1774 ft 221 kts 338°
2026-05-04 17:31 26.33636 50.59123 3203 ft 245 kts 359°
2026-05-04 17:31 26.39330 50.59672 4663 ft 283 kts 356°
2026-05-04 17:32 26.42915 50.58762 6978 ft 248 kts 341°
2026-05-04 17:33 26.47622 50.57028 9701 ft 239 kts 339°
2026-05-04 17:33 26.49181 50.56443 10323 ft 242 kts 339°
2026-05-04 17:34 26.54113 50.54603 12202 ft 253 kts 339°
2026-05-04 17:34 26.55792 50.53978 12812 ft 256 kts 339°
2026-05-04 17:35 26.60930 50.52048 14490 ft 266 kts 339°
2026-05-04 17:35 26.64481 50.50713 15561 ft 272 kts 339°
2026-05-04 17:35 26.66289 50.50034 16081 ft 276 kts 339°
2026-05-04 17:36 26.68123 50.49345 16610 ft 279 kts 339°
2026-05-04 17:36 26.69921 50.48517 17130 ft 280 kts 328°
2026-05-04 17:36 26.71519 50.47274 17637 ft 281 kts 316°
2026-05-04 17:36 26.72938 50.45756 18133 ft 284 kts 314°
2026-05-04 17:37 26.74366 50.44232 18601 ft 285 kts 314°
2026-05-04 17:37 26.75811 50.42704 19089 ft 286 kts 314°
2026-05-04 17:37 26.77262 50.41174 19540 ft 287 kts 314°
2026-05-04 17:37 26.78721 50.39635 19999 ft 289 kts 314°
2026-05-04 17:38 26.80185 50.38087 20446 ft 290 kts 314°
2026-05-04 17:38 26.81655 50.36533 20886 ft 292 kts 314°
2026-05-04 17:38 26.83135 50.34967 21312 ft 293 kts 313°
2026-05-04 17:38 26.84620 50.33393 21727 ft 295 kts 313°
2026-05-04 17:39 26.87614 50.30219 22536 ft 298 kts 313°
2026-05-04 17:39 26.89122 50.28619 22876 ft 302 kts 313°
2026-05-04 17:39 26.90676 50.26968 23010 ft 312 kts 313°
2026-05-04 17:40 26.92260 50.25286 23379 ft 314 kts 313°
2026-05-04 17:40 26.93849 50.23601 23736 ft 315 kts 313°
2026-05-04 17:40 26.95448 50.21904 24066 ft 317 kts 313°
2026-05-04 17:40 26.97052 50.20202 24393 ft 319 kts 312°
2026-05-04 17:41 26.98662 50.18491 24702 ft 320 kts 312°
2026-05-04 17:41 27.00284 50.16767 25024 ft 321 kts 312°
2026-05-04 17:41 27.01909 50.15038 25312 ft 323 kts 311°
2026-05-04 17:41 27.03543 50.13299 25586 ft 325 kts 311°
2026-05-04 17:42 27.05138 50.11513 25761 ft 328 kts 306°
2026-05-04 17:42 27.06637 50.09530 25805 ft 337 kts 306°
2026-05-04 17:42 27.08176 50.07495 25810 ft 348 kts 306°
2026-05-04 17:42 27.09771 50.05396 25809 ft 359 kts 306°
2026-05-04 17:43 27.11416 50.03236 25808 ft 370 kts 306°
2026-05-04 17:43 27.13113 50.01006 25809 ft 381 kts 307°
2026-05-04 17:43 27.14834 49.98745 25808 ft 392 kts 307°
2026-05-04 17:43 27.16626 49.96389 25809 ft 402 kts 307°
2026-05-04 17:44 27.18465 49.93969 25807 ft 413 kts 307°
2026-05-04 17:44 27.20351 49.91484 25810 ft 423 kts 307°
2026-05-04 17:44 27.22280 49.88942 25809 ft 432 kts 307°
2026-05-04 17:44 27.24250 49.86344 25807 ft 441 kts 307°
2026-05-04 17:45 27.26259 49.83693 25811 ft 450 kts 307°
2026-05-04 17:45 27.28302 49.80996 25805 ft 458 kts 307°
2026-05-04 17:45 27.30410 49.78210 25809 ft 465 kts 307°
2026-05-04 17:45 27.32495 49.75455 25808 ft 471 kts 307°
2026-05-04 17:46 27.34628 49.72633 25805 ft 476 kts 307°
2026-05-04 17:46 27.36776 49.69791 25807 ft 479 kts 307°
2026-05-04 17:46 27.38941 49.66924 25804 ft 481 kts 307°
2026-05-04 17:46 27.41112 49.64047 25807 ft 483 kts 307°
2026-05-04 17:47 27.43289 49.61159 25808 ft 485 kts 307°
2026-05-04 17:47 27.45475 49.58257 25806 ft 486 kts 307°
2026-05-04 17:47 27.47731 49.55421 25807 ft 489 kts 311°
2026-05-04 17:47 27.50246 49.52823 25806 ft 492 kts 317°
2026-05-04 17:48 27.52931 49.50426 25805 ft 493 kts 318°
2026-05-04 17:48 27.55620 49.48023 25805 ft 494 kts 317°
2026-05-04 17:48 27.58309 49.45610 25804 ft 494 kts 317°
2026-05-04 17:48 27.60994 49.43198 25804 ft 494 kts 317°
2026-05-04 17:49 27.63689 49.40777 25806 ft 495 kts 317°
2026-05-04 17:49 27.66383 49.38357 25806 ft 495 kts 317°
2026-05-04 17:49 27.69075 49.35938 25802 ft 495 kts 317°
2026-05-04 17:49 27.71768 49.33517 25804 ft 495 kts 317°
2026-05-04 17:50 27.74462 49.31093 25801 ft 495 kts 317°
2026-05-04 17:50 27.77156 49.28668 25802 ft 496 kts 317°
2026-05-04 17:50 27.79852 49.26239 25801 ft 496 kts 317°
2026-05-04 17:50 27.82545 49.23812 25803 ft 496 kts 317°
2026-05-04 17:51 27.85244 49.21377 25801 ft 496 kts 317°
2026-05-04 17:51 27.88028 49.19064 25801 ft 499 kts 322°
2026-05-04 17:51 27.90981 49.17062 25682 ft 486 kts 326°
2026-05-04 17:51 27.93847 49.15198 25145 ft 477 kts 326°
2026-05-04 17:52 27.96752 49.13292 24220 ft 478 kts 326°
2026-05-04 17:52 27.99636 49.11390 23321 ft 481 kts 326°
2026-05-04 17:52 28.02513 49.09496 22574 ft 476 kts 326°
2026-05-04 17:52 28.05351 49.07632 22024 ft 467 kts 326°
2026-05-04 17:53 28.08130 49.05809 21837 ft 459 kts 326°
2026-05-04 17:53 28.10886 49.04006 21804 ft 455 kts 326°
2026-05-04 17:53 28.13611 49.02219 21802 ft 451 kts 326°
2026-05-04 17:53 28.16311 49.00444 21800 ft 446 kts 326°
2026-05-04 17:54 28.18987 48.98682 21803 ft 443 kts 326°
2026-05-04 17:54 28.21629 48.96940 21957 ft 435 kts 326°
2026-05-04 17:54 28.24226 48.95227 22087 ft 429 kts 326°
2026-05-04 17:54 28.26794 48.93530 22100 ft 426 kts 326°
2026-05-04 17:55 28.29350 48.91840 22099 ft 424 kts 326°
2026-05-04 17:55 28.31893 48.90156 22097 ft 422 kts 325°
2026-05-04 17:55 28.34425 48.88479 22098 ft 420 kts 325°
2026-05-04 17:55 28.36940 48.86813 22099 ft 418 kts 325°
2026-05-04 17:56 28.39448 48.85150 22086 ft 417 kts 325°
2026-05-04 17:56 28.41953 48.83488 22012 ft 417 kts 325°
2026-05-04 17:56 28.44424 48.81848 21924 ft 417 kts 325°
2026-05-04 17:56 28.46928 48.80184 21849 ft 417 kts 325°
2026-05-04 17:57 28.49438 48.78517 21766 ft 418 kts 325°
2026-05-04 17:57 28.51948 48.76848 21684 ft 418 kts 325°
2026-05-04 17:57 28.54452 48.75163 21593 ft 417 kts 322°
2026-05-04 17:57 28.56662 48.73101 21486 ft 410 kts 309°
2026-05-04 17:58 28.58476 48.70599 21366 ft 409 kts 304°
2026-05-04 17:58 28.60248 48.68066 21265 ft 409 kts 305°
2026-05-04 17:58 28.62023 48.65530 21164 ft 410 kts 304°
2026-05-04 17:58 28.63798 48.62991 21055 ft 410 kts 305°
2026-05-04 17:59 28.65576 48.60445 20944 ft 411 kts 305°
2026-05-04 17:59 28.67355 48.57896 20832 ft 412 kts 305°
2026-05-04 17:59 28.70924 48.52776 20589 ft 413 kts 305°
2026-05-04 18:00 28.72713 48.50209 20451 ft 414 kts 305°
2026-05-04 18:00 28.74582 48.47784 20321 ft 402 kts 311°
2026-05-04 18:00 28.76681 48.45741 20152 ft 392 kts 320°
2026-05-04 18:00 28.78965 48.44119 19988 ft 383 kts 328°
2026-05-04 18:01 28.81345 48.42835 19826 ft 373 kts 332°
2026-05-04 18:01 28.83709 48.41728 19676 ft 362 kts 333°
2026-05-04 18:01 28.86056 48.40753 19420 ft 355 kts 336°
2026-05-04 18:02 28.90696 48.39226 18975 ft 340 kts 339°
2026-05-04 18:02 28.92937 48.38504 18778 ft 330 kts 338°
2026-05-04 18:02 28.95127 48.37769 18487 ft 330 kts 338°
2026-05-04 18:02 28.97341 48.36988 18194 ft 337 kts 337°
2026-05-04 18:03 28.99597 48.36179 17607 ft 341 kts 337°
2026-05-04 18:03 29.01872 48.35364 17037 ft 343 kts 337°
2026-05-04 18:03 29.04145 48.34552 16572 ft 342 kts 337°
2026-05-04 18:03 29.06412 48.33746 16116 ft 340 kts 337°
2026-05-04 18:04 29.08666 48.32946 15668 ft 339 kts 337°
2026-05-04 18:04 29.10156 48.32420 15345 ft 339 kts 337°
2026-05-04 18:04 29.14707 48.30805 13891 ft 350 kts 337°
2026-05-04 18:05 29.17055 48.29988 12811 ft 354 kts 338°
2026-05-04 18:05 29.19426 48.29178 11743 ft 357 kts 339°
2026-05-04 18:05 29.21782 48.28327 10835 ft 354 kts 334°
2026-05-04 18:05 29.23919 48.27029 10243 ft 338 kts 321°
2026-05-04 18:06 29.27295 48.23610 9166 ft 313 kts 312°
2026-05-04 18:06 29.28825 48.21815 8474 ft 308 kts 311°
2026-05-04 18:06 29.30290 48.20049 7554 ft 312 kts 311°
2026-05-04 18:07 29.31782 48.18186 6812 ft 310 kts 310°
2026-05-04 18:07 29.33157 48.16320 6253 ft 303 kts 307°
2026-05-04 18:07 29.34456 48.14468 5746 ft 293 kts 307°
2026-05-04 18:07 29.35712 48.12719 5300 ft 283 kts 310°
2026-05-04 18:08 29.37000 48.11069 4872 ft 273 kts 311°
2026-05-04 18:08 29.38278 48.09513 4451 ft 263 kts 313°
2026-05-04 18:08 29.39508 48.08013 4049 ft 251 kts 312°
2026-05-04 18:08 29.40663 48.06597 3577 ft 243 kts 313°
2026-05-04 18:09 29.43028 48.03963 3184 ft 234 kts 317°
2026-05-04 18:09 29.45221 48.01261 2776 ft 237 kts 296°
2026-05-04 18:10 29.45737 47.99532 2683 ft 223 kts 276°
2026-05-04 18:10 29.45709 47.97693 2620 ft 231 kts 257°
2026-05-04 18:10 29.45208 47.95969 2643 ft 223 kts 244°
2026-05-04 18:10 29.44555 47.94364 2639 ft 223 kts 242°
2026-05-04 18:11 29.43868 47.92783 2618 ft 216 kts 240°
2026-05-04 18:11 29.43169 47.91289 2744 ft 202 kts 238°
2026-05-04 18:11 29.42480 47.89899 2826 ft 203 kts 238°
2026-05-04 18:11 29.41707 47.88498 2868 ft 208 kts 228°
2026-05-04 18:12 29.40568 47.87475 2851 ft 205 kts 202°
2026-05-04 18:12 29.39257 47.87345 2911 ft 182 kts 159°
2026-05-04 18:12 29.38202 47.88111 2699 ft 182 kts 143°
2026-05-04 18:12 29.37170 47.88944 2532 ft 178 kts 150°
2026-05-04 18:13 29.36047 47.89458 2395 ft 175 kts 157°
2026-05-04 18:13 29.34990 47.90143 2227 ft 172 kts 146°
2026-05-04 18:13 29.32945 47.91431 1976 ft 167 kts 153°
2026-05-04 18:14 29.31892 47.92017 1774 ft 174 kts 152°
2026-05-04 18:14 29.30733 47.92656 1417 ft 188 kts 153°
2026-05-04 18:14 29.29555 47.93248 1121 ft 182 kts 154°
2026-05-04 18:15 29.27319 47.94440 757 ft 173 kts 155°
2026-05-04 18:15 29.25013 47.95638 411 ft 178 kts 154°
2026-05-04 18:15 29.23915 47.96230 164 ft 168 kts 154°
2026-05-04 18:16 29.22918 47.96759 157 ft 148 kts 156°
2026-05-04 18:16 29.22100 47.97184 166 ft 93 kts 155°
2026-05-04 18:16 29.21793 47.97353 169 ft 0 kts 154°
2026-05-04 18:17 29.21457 47.97532 172 ft 55 kts 158°
2026-05-04 18:17 29.21259 47.97822 177 ft 37 kts 61°
2026-05-04 18:17 29.21482 47.97764 175 ft 33 kts 336°
2026-05-04 18:18 29.21721 47.97637 172 ft 40 kts 334°
2026-05-04 18:18 29.21966 47.97505 169 ft 40 kts 335°
2026-05-04 18:18 29.22231 47.97366 166 ft 41 kts 334°
2026-05-04 18:18 29.22488 47.97228 163 ft 41 kts 334°
2026-05-04 18:19 29.22799 47.97065 159 ft 0 kts 336°
2026-05-04 18:19 29.22813 47.97058 157 ft 4 kts 336°
2026-05-04 18:19 29.22851 47.97038 158 ft 8 kts 335°
2026-05-04 18:20 29.22947 47.96987 157 ft 22 kts 335°
2026-05-04 18:20 29.23103 47.96903 155 ft 28 kts 335°
2026-05-04 18:20 29.23160 47.96873 154 ft 17 kts 336°
2026-05-04 18:20 29.23356 47.96779 152 ft 29 kts 358°
2026-05-04 18:21 29.23441 47.96916 153 ft 21 kts 62°
2026-05-04 18:21 29.23488 47.97020 151 ft 0 kts 63°
2026-05-04 18:21 29.23491 47.97028 152 ft 9 kts 64°
2026-05-04 18:21 29.23556 47.97168 156 ft 23 kts 46°
2026-05-04 18:22 29.23646 47.97154 155 ft 10 kts 299°
2026-05-04 18:22 29.23770 47.97074 154 ft 29 kts 341°
2026-05-04 18:22 29.23893 47.97095 154 ft 0 kts 25°
2026-05-04 18:22 29.23891 47.97094 154 ft 0 kts 25°
2026-05-04 18:23 29.23888 47.97093 154 ft 3 kts 25°
2026-05-04 18:23 29.23880 47.97088 154 ft 0 kts 25°